Flag for Germany Weather past 2 weeks in Schorndorf, Baden-Württemberg, Germany

Now
80 °F

Scattered clouds.


Feels Like: 79 °F
Forecast: 55 / 87 °F
Wind: 5 mph from Northeast

Location: Stuttgart-Echterdingen

Current Time: Aug 2, 2015 at 3:23:54 PM

Latest Report: Aug 2, 2015 at 3:00 PM


Visibility: 37 mi

Pressure: 30.03 "Hg

Humidity: 29%

Dew point: 45 °F

Location of SchorndorfLocation

Historic Weather in Schorndorf — Graph

°F

Schorndorf temperature yesterday

Maximum temperature yesterday: 73 °F (at 5:00 PM)
Minimum temperature yesterday: 57 °F (at 6:00 AM)
Average temperature yesterday: 65 °F

Past Weeks' High & Low Weather Summary

 TemperatureHumidityPressure
High94 °F (Jul 22, 3:00 PM)92% (Jul 23, 8:00 AM)30.12 "Hg (Jul 23, 8:00 AM)
Low49 °F (Jul 31, 7:00 AM)26% (Jul 22, 3:00 PM)29.65 "Hg (Jul 24, 8:00 PM)
Average69 °F60%29.91 "Hg
* Reported Jul 18 2:00 PM — Aug 2 2:00 PM, Schorndorf, Weather by CustomWeather, © 2015

Note: Actual official high and low records may vary slightly from our data, if they occured in-between our weather recording intervals... More about our weather records

Advertising

Schorndorf weather history for previous 24 hours

 ConditionsComfort  
Time TempWeatherWind HumidityBarometerVisibility
2:00 PM
Sun, Aug 2
79 °FPassing clouds.5 mph30%30.05 "Hg37 mi
1:00 PM77 °FPassing clouds.2 mph37%30.07 "Hg34 mi
12:00 PM75 °FPassing clouds.1 mph45%30.09 "Hg31 mi
11:00 AM72 °FPassing clouds.1 mph55%30.09 "Hg31 mi
10:00 AM69 °FPassing clouds.1 mph62%30.10 "Hg28 mi
9:00 AM65 °FPassing clouds.No wind76%30.10 "Hg25 mi
8:00 AM60 °FPassing clouds.1 mph85%30.11 "Hg28 mi
7:00 AM55 °FPassing clouds.1 mph92%30.10 "Hg28 mi
4:00 AM58 °FPassing clouds.1 mph84%30.06 "Hg28 mi
1:00 AM63 °FOvercast.1 mph76%30.04 "Hg31 mi
11:00 PM
Sat, Aug 1
66 °FOvercast.1 mph73%30.01 "Hg31 mi
10:00 PM67 °FLight rain. Overcast.1 mph70%30.00 "Hg28 mi
9:00 PM69 °FLight rain. Overcast.1 mph64%29.97 "Hg37 mi
8:00 PM69 °FOvercast.1 mph60%29.95 "Hg37 mi
7:00 PM71 °FLight rain. Overcast.2 mph52%29.95 "Hg34 mi
6:00 PM72 °FOvercast.2 mph48%29.94 "Hg37 mi
5:00 PM73 °FOvercast.2 mph46%29.94 "Hg34 mi
4:00 PM71 °FOvercast.3 mph48%29.94 "Hg34 mi
3:00 PM72 °FOvercast.2 mph46%29.93 "Hg34 mi
Weather by CustomWeather, © 2015

See weather overviewHow to use our weather pages